Wind_Speed
30 30 30 30 31 30 30 29 28 27 27 27 28 30 31 31 30 30 30 34 42 48 50 51 51 52 53 54 55 55 55 54 54 55 56 56 56 57 57 58 58 59 60 62 64 66 68 69 70 70 71 72 72 73 74 73 72 71 67 62 56 53 52 53 54 58 67 73 77 79 76 74 71 70 70 71 72 73 70 65 61 56 55 55 53 51 52 52
30 30 30 30 30 31 31 30 30 29 28 28 27 28 29 30 31 31 30 30 33 39 47 52 54 55 55 56 57 57 57 57 57 58 59 59 59 59 59 59 60 60 61 61 63 65 66 68 69 71 72 73 73 74 76 75 75 73 69 64 57 54 54 55 58 60 66 73 79 84 84 79 75 72 72 73 73 75 73 66 61 58 57 56 53 54 56 53
29 29 29 30 30 30 30 30 31 31 31 31 30 29 29 29 30 31 32 32 32 34 38 45 51 55 58 59 59 59 59 59 59 60 61 62 62 63 62 62 62 62 62 63 64 65 65 66 68 70 72 73 74 76 77 76 76 74 72 65 57 57 59 58 61 62 65 71 77 83 86 84 80 78 76 75 74 76 74 66 62 60 59 57 56 57 57 53
27 27 27 28 28 28 28 28 29 29 30 31 32 32 32 32 31 31 31 32 34 35 36 39 43 49 54 58 61 61 62 61 61 62 63 64 66 66 66 66 66 66 65 65 65 66 66 66 67 68 70 72 74 76 77 77 77 75 72 65 61 63 63 62 64 64 66 70 74 79 85 86 84 84 82 78 75 76 74 68 64 62 61 59 57 59 58 55
27 27 26 26 26 25 25 25 25 26 27 29 30 32 33 34 35 34 34 34 35 36 38 40 41 44 48 52 56 59 62 63 64 65 66 67 68 69 69 69 69 69 69 69 69 69 69 68 68 69 70 71 73 74 76 78 79 76 71 66 67 68 67 67 67 67 69 71 73 76 81 85 87 89 88 84 78 74 73 71 68 65 63 61 59 58 57 55
26 26 26 25 25 24 23 23 23 23 24 25 27 29 31 33 35 37 38 38 38 38 39 41 43 45 47 50 52 55 58 61 63 66 68 70 71 71 71 71 71 72 72 72 73 73 72 71 71 71 71 72 73 73 74 77 78 75 71 70 70 71 71 71 70 71 71 72 73 75 77 82 88 92 90 86 80 74 74 75 73 68 65 63 61 59 58 56
24 24 24 24 24 24 23 22 21 21 22 23 24 25 27 30 32 35 38 40 42 43 44 45 46 48 49 51 53 54 56 59 61 64 66 68 71 72 73 74 75 75 75 75 76 76 76 75 75 74 74 74 74 74 74 76 76 73 70 72 72 72 74 74 74 75 75 74 74 75 77 80 85 88 88 85 81 77 76 77 77 73 69 65 61 59 59 57
26 26 26 26 26 25 25 23 22 21 21 22 23 24 25 27 29 31 34 37 40 44 46 49 51 53 54 54 55 56 58 60 62 65 66 67 69 71 73 75 77 78 78 78 78 78 79 79 78 78 77 77 76 76 77 76 75 71 69 71 73 75 76 77 78 78 77 77 76 76 78 78 80 83 85 84 81 79 78 77 78 77 74 70 64 61 60 59
30 31 31 30 30 30 30 29 27 26 25 25 25 26 26 27 29 30 32 34 36 39 43 47 51 55 57 58 58 59 61 63 65 67 68 69 70 71 71 73 76 78 80 81 81 82 82 82 81 80 80 80 80 79 80 78 75 72 70 71 74 77 78 78 79 79 80 79 79 79 77 76 78 82 84 81 79 81 79 77 78 78 77 72 66 63 62 61
33 34 34 35 35 35 35 35 34 33 32 31 32 32 32 32 33 34 34 35 37 39 42 45 48 52 56 58 60 60 63 66 69 69 69 71 72 72 73 74 75 77 79 80 82 83 84 85 84 83 83 83 83 83 83 80 77 75 73 72 74 77 78 79 80 80 81 81 81 81 78 77 80 85 84 78 76 79 80 78 78 78 77 75 70 66 65 63
35 36 36 37 37 37 37 37 37 36 35 36 37 38 39 39 40 40 40 41 42 43 45 47 49 51 54 57 58 58 62 67 70 70 70 71 73 74 74 75 76 77 79 81 82 83 84 85 86 86 86 85 85 85 86 84 81 80 77 74 75 77 77 79 80 81 83 82 82 83 83 82 85 87 81 75 74 76 78 79 79 78 76 76 75 71 68 66
38 38 38 38 38 38 38 38 38 37 37 37 38 39 41 42 42 43 44 44 45 46 48 49 51 52 55 56 56 57 60 64 68 69 71 72 73 74 75 76 77 79 81 83 83 83 84 85 85 86 86 87 88 88 89 87 84 83 82 79 78 78 77 78 79 81 84 83 83 86 88 88 88 85 76 73 76 77 77 78 78 78 76 75 77 76 72 68
41 41 41 41 41 40 39 39 39 38 38 38 39 41 42 43 43 44 45 46 46 48 49 50 51 52 54 55 55 57 59 62 65 68 70 72 74 75 76 77 78 80 81 84 85 85 86 87 87 87 87 87 88 91 91 90 88 87 86 83 81 80 77 76 79 81 83 83 84 90 92 89 86 81 74 76 80 80 79 78 78 78 77 77 77 78 77 72
42 43 43 43 43 42 41 40 40 40 40 40 41 43 44 45 45 46 47 48 48 49 49 49 49 49 51 52 52 54 57 60 64 66 68 71 74 75 77 79 80 80 82 85 86 86 87 88 88 89 89 89 89 91 91 91 91 90 90 87 84 83 79 78 81 82 82 82 85 94 95 88 83 79 77 80 83 83 82 79 78 78 77 77 78 79 79 77
43 44 44 44 45 45 44 43 43 43 43 43 44 46 48 48 48 48 49 50 50 49 48 47 46 46 47 48 49 51 54 57 62 66 68 70 72 74 76 79 80 81 83 85 87 88 89 89 90 90 91 91 91 92 92 91 91 91 91 89 87 86 83 83 85 84 83 83 88 97 95 86 82 80 80 84 87 87 86 82 80 79 78 76 77 79 79 80
45 45 45 45 46 47 47 47 46 47 47 48 49 50 52 54 52 50 52 54 53 51 48 46 44 43 43 45 46 48 51 55 59 64 67 69 70 72 74 77 79 81 83 85 87 89 89 90 91 92 92 92 92 93 94 94 92 91 91 91 91 90 88 88 89 88 86 87 92 99 95 85 81 81 83 87 90 90 89 85 82 81 79 77 76 77 77 79
46 47 46 46 48 50 50 51 51 52 52 54 55 56 57 59 58 55 56 58 55 52 49 46 45 43 41 41 43 45 48 52 56 60 63 65 67 70 72 75 78 80 82 85 88 90 90 91 91 92 93 94 95 95 96 95 94 95 95 93 92 93 92 91 93 93 92 92 96 100 94 84 81 82 84 88 90 92 91 89 86 84 82 79 77 76 75 76
47 48 48 48 50 52 54 54 55 56 57 59 61 62 63 65 64 59 58 59 56 51 47 44 44 43 41 39 40 42 44 48 51 55 58 61 64 68 71 74 77 79 82 84 87 89 91 91 92 92 94 96 98 99 98 97 97 100 101 97 94 94 93 92 95 96 97 98 99 101 94 82 81 83 83 86 89 92 94 92 89 86 85 82 79 77 75 74
47 50 50 50 53 55 56 57 58 60 62 63 65 67 69 70 71 66 62 61 57 52 49 46 44 43 41 39 38 39 41 44 47 50 53 57 61 65 69 73 75 78 81 84 86 88 90 91 92 92 95 99 102 102 100 98 100 101 101 99 96 95 94 92 95 99 102 103 103 102 93 81 81 84 83 85 88 92 95 94 91 88 87 86 83 80 77 74
48 51 52 53 56 58 59 59 61 62 63 66 68 71 73 74 76 74 69 64 59 55 52 49 46 44 42 40 38 38 39 41 44 46 49 53 57 61 66 70 74 76 80 83 84 86 88 89 91 94 99 102 103 102 99 98 100 101 101 101 98 97 96 94 95 99 105 109 106 103 93 82 83 86 85 86 90 92 94 95 94 90 89 88 85 82 78 74
50 52 54 56 58 60 61 62 62 64 65 67 70 72 74 75 76 76 75 71 65 60 57 53 50 46 43 41 40 39 39 40 41 42 45 50 54 58 62 65 69 74 77 80 82 84 86 87 91 96 100 101 100 100 98 98 99 101 101 101 99 98 97 97 98 99 106 112 109 104 95 86 85 87 87 89 92 94 93 94 94 90 89 89 86 83 80 76
51 53 56 58 61 62 63 63 64 66 67 69 71 74 75 76 77 76 76 77 74 68 64 59 54 49 46 43 42 41 40 39 40 40 42 47 52 54 57 60 64 68 73 75 78 81 83 85 91 96 96 96 96 96 96 96 97 99 100 101 99 99 99 100 101 102 106 112 110 106 99 90 88 89 90 92 94 95 94 93 93 91 90 89 87 84 81 79
52 54 58 60 63 64 64 65 67 68 69 71 73 76 77 78 79 78 77 78 78 73 68 63 58 53 49 46 44 43 42 41 40 40 40 44 48 50 53 57 59 62 66 69 73 75 76 82 89 91 91 91 91 91 92 92 93 95 98 99 99 100 101 101 103 106 110 112 110 107 101 94 92 92 92 94 95 95 94 94 93 92 91 88 86 85 83 80
53 55 58 61 64 65 66 67 69 70 71 72 75 77 78 79 80 80 80 80 79 75 70 65 59 54 50 47 44 43 43 42 41 42 41 42 44 47 50 54 56 59 63 66 68 67 69 75 80 81 83 85 86 86 86 85 86 88 92 95 97 100 102 101 104 109 114 115 111 107 103 95 94 95 94 94 94 93 94 95 94 92 90 87 85 85 83 81
53 54 58 61 64 66 68 70 71 72 73 75 77 78 79 81 82 82 83 83 81 77 72 66 59 54 50 47 44 42 42 42 42 42 42 42 43 44 47 51 54 58 63 66 66 64 65 70 71 70 74 77 79 80 81 81 80 81 83 87 91 96 101 103 105 110 114 117 113 109 104 95 94 99 98 96 96 94 94 95 94 91 89 85 83 83 82 80
53 54 57 60 63 66 69 71 72 74 76 78 79 80 81 82 84 84 85 85 83 78 73 66 59 54 51 48 44 42 42 42 43 43 42 42 43 43 45 49 52 56 62 65 65 64 67 70 68 66 67 68 69 72 76 78 76 75 76 80 84 89 97 102 105 109 113 116 113 111 107 97 97 104 103 100 100 97 95 96 95 91 88 85 81 80 80 79
53 54 56 60 63 67 69 71 73 75 78 80 81 81 82 84 86 87 88 87 84 78 71 63 57 54 51 48 44 41 40 40 44 44 42 43 44 45 45 47 49 52 58 61 61 62 66 69 68 67 65 63 63 66 72 75 71 69 72 77 80 84 92 98 103 107 111 113 113 115 111 101 101 106 104 103 103 100 98 97 96 92 88 84 79 77 77 76
52 54 56 59 63 67 70 72 74 76 79 81 82 82 84 86 88 89 90 88 83 78 70 62 57 54 52 51 46 41 38 37 40 41 41 40 41 44 45 46 47 48 51 53 54 57 61 64 66 65 63 60 61 64 70 71 65 63 67 74 77 81 88 94 99 104 108 112 116 117 114 106 103 104 103 104 105 101 99 98 96 91 86 82 76 74 73 72
51 54 56 60 64 68 71 73 75 78 81 82 83 84 86 88 90 91 91 88 84 78 70 62 57 54 52 52 49 44 40 39 39 39 39 37 36 38 40 43 44 46 48 48 49 52 54 56 58 59 59 59 59 60 64 65 60 59 64 69 72 77 85 91 95 99 105 112 115 116 114 108 105 103 103 105 106 102 99 98 96 90 84 78 73 72 72 71
52 54 58 61 65 68 71 74 76 79 82 84 85 87 88 90 91 92 91 89 84 79 71 63 57 54 51 50 49 47 45 44 43 41 40 38 36 36 36 37 38 40 43 43 46 48 48 48 48 50 54 56 56 56 58 58 55 55 60 64 67 73 81 88 92 96 103 109 111 113 113 108 105 104 105 106 105 102 99 98 96 90 82 77 73 72 72 71
53 56 59 63 66 69 72 74 77 80 83 85 86 88 90 91 91 91 91 89 84 79 72 64 58 55 52 48 46 46 46 46 45 43 40 38 36 34 34 33 33 34 36 38 41 44 45 45 43 43 47 49 50 51 52 53 52 53 57 60 63 70 77 84 89 95 101 104 105 108 111 109 104 104 105 105 102 100 99 98 96 90 83 78 75 72 71 70
55 58 61 64 67 70 72 75 78 81 84 85 87 89 91 91 92 92 91 88 84 79 72 65 59 56 55 52 47 45 44 43 41 40 37 34 31 29 29 29 30 31 32 33 36 39 41 42 41 40 40 42 43 45 47 50 51 52 54 57 62 68 74 80 86 92 96 97 99 104 110 109 103 102 106 104 99 99 99 98 96 91 84 80 77 73 71 69
57 60 63 66 69 71 73 75 78 81 84 86 88 90 91 92 93 92 91 88 85 79 72 67 61 57 57 54 50 46 44 41 39 35 31 28 26 24 24 24 26 27 28 29 30 33 36 37 38 38 38 39 39 41 45 47 48 50 52 55 60 65 70 75 81 87 89 92 96 102 109 110 102 101 106 104 99 98 98 97 96 91 86 82 78 75 72 69
59 61 64 67 70 72 74 76 79 82 84 87 89 90 91 93 93 92 91 89 86 80 73 68 63 60 58 55 49 46 45 42 39 35 30 27 24 22 22 23 23 23 24 24 25 28 30 32 34 36 36 37 38 40 43 43 44 47 49 52 56 60 65 70 76 81 83 88 95 101 107 109 102 100 104 104 99 97 97 97 96 93 88 83 80 77 73 69
60 62 65 68 71 73 74 76 79 82 85 87 89 90 91 92 92 92 91 89 85 80 73 68 64 61 59 55 49 45 44 41 37 35 32 29 26 24 23 23 23 22 21 21 22 23 25 27 29 31 32 34 36 38 39 39 40 43 46 48 51 56 61 65 71 76 80 87 95 100 103 102 98 98 101 102 100 99 98 97 96 94 90 86 82 79 75 69
60 63 66 69 72 74 75 77 79 82 85 88 89 90 92 93 93 92 92 89 85 79 73 69 65 62 59 55 49 46 44 41 37 34 32 30 28 27 26 25 24 22 20 19 19 20 22 23 24 25 27 29 32 34 35 35 37 41 43 44 47 52 57 61 66 72 78 84 90 94 94 94 94 94 98 102 102 100 99 96 94 93 92 88 84 80 75 69
60 63 66 69 71 73 75 77 79 81 84 87 89 91 93 94 94 93 92 90 85 79 73 69 66 63 60 56 51 48 45 42 38 35 33 32 29 26 25 24 22 20 18 17 17 17 19 20 21 21 23 25 27 29 30 31 34 37 39 42 46 49 53 58 64 69 75 79 82 84 86 90 91 91 96 101 102 101 99 97 94 92 92 90 85 80 76 70
60 64 67 69 71 73 75 78 80 81 83 86 89 92 94 95 94 94 93 91 87 80 74 70 67 64 61 58 53 49 47 44 39 36 35 33 30 27 25 23 20 17 15 15 15 15 17 18 19 19 21 22 24 25 26 28 31 34 36 40 44 45 48 54 60 64 68 71 75 77 80 86 88 88 93 100 102 102 102 100 96 92 91 90 86 82 78 73
61 63 66 69 71 73 75 78 80 81 83 85 88 91 94 95 95 94 93 91 88 82 76 72 68 65 62 59 54 51 49 47 43 40 38 35 32 29 27 25 21 18 15 14 14 15 16 17 18 18 19 20 21 21 22 24 27 29 32 36 39 41 45 50 55 58 61 65 70 72 75 82 85 86 92 100 104 106 105 103 99 94 92 90 87 83 79 74
60 63 66 69 72 73 75 78 80 82 83 85 88 91 94 95 95 94 93 92 89 83 77 73 69 66 62 58 55 51 50 48 45 43 42 40 37 34 31 28 25 20 17 15 14 14 15 15 16 17 17 18 18 18 19 21 23 24 27 30 34 38 42 46 49 52 55 58 62 66 70 77 82 86 94 102 107 107 105 103 99 96 93 89 86 84 80 74
60 63 66 69 71 73 75 77 79 82 84 85 87 90 93 95 95 94 93 92 89 84 78 74 69 66 63 58 54 51 49 48 45 43 42 40 38 36 33 30 26 22 18 16 14 13 13 13 14 14 14 14 15 16 18 19 20 21 24 28 31 35 39 42 44 47 49 51 55 60 66 72 79 86 94 101 104 104 103 102 100 97 93 87 84 83 80 75
61 64 67 68 70 73 75 77 79 82 85 86 88 89 91 94 94 94 93 92 89 85 79 74 69 65 62 58 54 51 49 48 45 42 41 40 37 35 32 29 26 23 20 17 14 12 12 11 11 11 11 12 13 14 16 17 18 20 24 28 31 33 36 40 44 47 48 49 52 56 62 69 76 83 90 96 99 101 101 101 99 96 91 86 82 81 79 75
62 64 67 68 69 71 74 77 80 83 85 87 89 90 90 92 94 94 93 92 90 85 79 73 68 64 61 57 53 51 49 48 46 43 42 40 38 36 32 29 26 22 20 17 14 13 11 9 9 9 9 10 11 12 14 15 18 20 23 27 31 33 37 42 45 46 45 46 50 54 61 67 73 80 87 92 96 98 98 98 96 93 90 86 82 79 77 76
63 64 66 68 69 70 73 75 78 82 85 87 90 92 91 91 94 94 93 92 90 84 78 72 67 63 60 57 53 50 48 47 46 44 42 40 39 37 34 30 26 22 18 15 13 11 10 8 7 8 8 8 9 11 12 15 18 21 22 26 31 34 37 39 38 37 38 42 46 51 59 66 70 76 82 88 92 95 96 95 94 91 88 85 82 78 75 75
64 65 66 68 69 70 72 75 77 81 84 86 89 92 92 91 93 94 93 92 89 83 76 71 67 62 59 56 52 49 47 46 45 44 42 41 39 38 36 31 26 22 17 14 11 10 8 6 5 6 7 8 9 11 12 13 16 20 21 24 28 31 32 32 31 31 34 38 43 49 57 65 69 73 77 82 89 92 94 93 91 89 87 84 81 77 75 74
63 65 67 69 70 71 73 75 78 81 83 86 89 91 91 91 91 93 93 92 89 82 75 70 66 62 59 55 52 49 46 45 44 42 41 40 40 39 36 31 26 21 17 13 11 9 7 5 3 3 5 7 10 12 13 13 16 19 22 22 24 26 28 29 30 32 34 37 41 49 57 62 67 70 72 78 85 89 91 92 89 88 86 83 81 78 75 74
61 64 67 69 70 72 74 77 80 83 84 86 89 90 90 89 90 92 93 92 89 83 76 70 65 61 58 54 51 48 45 43 42 40 38 37 37 37 34 30 26 21 16 12 10 9 7 5 2 1 4 7 11 13 14 14 15 18 22 24 25 27 29 32 34 35 35 37 42 49 55 59 64 67 70 75 81 86 88 90 89 87 85 83 81 79 76 75
61 64 66 68 70 72 75 78 81 84 85 87 89 90 90 89 89 90 92 93 90 84 76 70 65 60 56 53 49 46 43 41 40 39 36 34 33 33 31 28 25 21 16 12 10 8 7 5 3 1 4 7 10 13 15 15 16 18 21 24 28 30 33 36 37 37 37 39 43 48 51 55 59 64 68 73 78 83 85 87 87 87 85 83 81 80 78 76
62 64 66 68 69 71 75 78 81 84 85 87 88 88 89 89 89 88 90 92 91 86 77 70 65 60 55 52 48 44 42 40 39 38 36 32 31 30 28 26 23 20 16 12 9 8 8 7 4 2 5 8 10 14 16 17 18 19 21 24 27 29 30 32 33 34 36 38 42 44 47 50 55 59 64 68 73 79 82 84 85 85 85 83 82 82 81 78
64 66 67 69 71 73 76 79 82 84 85 86 88 88 87 89 90 89 88 89 90 86 78 71 65 59 55 52 48 44 40 37 37 37 35 32 30 29 27 23 21 18 14 12 11 10 10 9 6 4 5 8 11 14 17 19 20 22 23 25 26 27 27 27 29 31 32 34 36 39 44 48 51 56 60 65 70 76 79 80 81 83 84 84 84 83 82 78
64 66 68 69 71 75 77 80 83 84 85 86 87 87 86 87 89 90 89 88 87 83 76 70 65 60 55 50 47 44 39 35 34 34 34 31 29 29 27 24 20 17 14 14 13 12 11 10 9 7 7 8 11 14 17 19 20 22 23 23 24 25 26 27 28 28 29 30 32 36 40 45 49 54 58 61 65 71 74 76 78 81 83 85 85 84 82 79
64 66 67 68 71 75 78 81 83 84 85 85 86 86 85 85 87 89 90 89 87 82 75 68 64 60 55 50 46 43 40 36 33 32 33 31 28 28 27 24 20 18 15 15 15 13 12 11 11 11 11 11 12 15 18 19 20 21 21 21 21 22 23 24 25 25 26 27 29 33 36 40 45 49 52 54 58 63 69 73 76 80 83 85 85 84 83 81
Wind_Direction
325 324 324 323 322 321 319 317 315 312 308 305 301 298 295 292 288 284 280 273 266 262 259 257 256 256 256 255 254 254 253 253 252 252 252 251 251 251 250 249 248 247 247 247 246 246 245 245 244 244 244 244 243 243 243 242 241 240 239 237 233 231 230 229 227 224 223 223 228 233 233 232 236 238 239 239 241 243 242 240 236 234 236 238 237 237 238 240
325 324 323 322 321 320 319 318 316 314 312 309 305 300 296 293 291 287 283 279 273 266 262 259 257 257 257 256 256 255 255 254 253 252 252 252 251 251 251 250 250 249 247 247 247 246 245 245 244 244 243 244 243 243 243 242 242 240 239 236 232 231 230 229 227 224 223 224 227 233 233 230 232 236 238 238 239 241 242 239 237 235 236 237 237 239 240 241
325 324 323 322 321 320 319 318 317 315 313 311 308 305 300 296 291 288 284 280 276 271 266 262 259 258 257 257 257 256 256 255 254 253 253 253 252 251 250 250 249 249 248 247 247 247 246 245 245 244 244 243 243 243 243 242 242 240 238 235 232 232 231 229 229 226 225 225 227 232 234 231 230 233 236 237 238 240 242 240 237 236 237 237 237 240 242 243
324 324 323 324 323 323 321 320 319 317 315 313 310 307 304 301 296 291 286 281 278 274 270 266 262 260 258 257 257 257 256 255 254 253 253 252 252 252 251 250 249 248 248 248 247 247 246 246 245 245 244 243 243 243 243 242 242 240 238 235 232 232 231 230 230 228 227 226 227 230 233 232 231 232 234 235 236 239 242 241 239 237 238 238 237 240 242 242
326 325 324 325 326 326 326 324 323 320 318 315 312 309 306 303 300 296 291 286 281 276 273 270 267 264 262 260 259 258 257 256 255 254 252 252 251 251 251 250 250 249 248 248 247 247 246 245 245 245 244 244 243 243 243 243 242 240 238 235 233 232 231 230 230 230 229 228 227 229 233 233 233 233 233 233 234 239 243 244 241 239 238 239 238 238 239 239
331 329 327 327 327 329 330 330 329 326 323 319 315 311 307 303 299 296 293 290 286 282 277 274 270 267 265 263 262 260 259 258 256 255 253 252 251 251 251 250 250 249 249 248 247 247 246 245 245 244 244 244 244 243 243 243 242 240 238 236 233 232 231 230 230 231 231 230 229 229 232 234 234 234 233 233 234 237 242 245 243 241 240 240 238 236 236 236
335 333 331 329 329 329 329 330 332 332 331 328 324 319 313 307 301 296 292 290 287 285 282 278 275 271 268 265 264 262 261 259 258 257 255 254 253 252 251 250 250 249 248 248 247 247 246 246 245 244 244 244 244 244 243 244 243 240 238 237 234 232 231 231 230 230 231 232 231 231 232 234 236 236 235 233 234 236 239 242 244 243 242 240 237 235 235 234
340 338 335 334 333 331 329 328 327 327 328 328 327 324 321 316 310 304 297 292 288 284 281 279 276 274 271 268 266 264 262 261 259 258 257 255 254 253 251 251 250 249 248 248 247 247 246 246 245 245 244 244 244 244 244 243 243 241 238 237 235 232 231 231 230 230 231 232 232 232 233 235 237 239 237 234 232 236 237 239 242 243 242 241 239 237 236 235
345 344 342 340 339 337 335 332 330 328 326 325 324 321 319 318 316 312 308 302 296 289 283 278 274 272 270 269 267 266 264 262 259 258 257 256 255 254 252 252 251 250 249 248 248 247 246 246 245 245 244 244 244 244 244 243 243 241 238 237 235 232 231 231 231 231 231 231 232 233 234 235 237 239 239 235 232 235 237 237 239 241 243 242 240 239 238 237
348 347 347 345 343 341 339 337 335 334 333 332 330 327 325 322 320 317 314 311 306 300 292 284 277 272 268 266 265 264 263 262 260 259 257 256 256 255 253 252 251 251 250 249 249 248 247 246 245 244 244 244 244 243 244 243 242 241 238 236 235 233 232 231 231 231 232 232 232 233 233 234 236 238 238 237 234 235 237 238 238 239 241 243 241 240 239 238
350 349 348 347 345 342 339 337 335 335 335 335 335 333 331 328 326 323 320 316 311 304 297 291 284 278 272 267 264 262 260 260 260 260 259 257 256 255 254 253 251 251 250 250 249 248 248 247 246 245 244 243 243 243 243 242 241 240 239 236 235 234 232 231 230 231 231 231 232 232 231 231 233 236 237 238 238 236 237 238 238 237 237 240 243 242 239 238
351 349 348 347 345 342 339 335 333 332 332 333 333 332 330 328 326 323 321 317 312 306 300 294 288 283 277 272 268 265 261 259 259 258 258 257 256 255 254 253 251 250 249 249 249 248 248 247 247 246 244 243 243 243 243 242 241 240 239 237 235 235 232 231 231 231 231 231 232 232 230 229 231 235 236 238 239 238 237 237 238 237 235 235 239 242 241 238
351 349 347 346 345 343 340 336 332 329 328 328 328 328 327 326 324 322 320 316 312 307 302 297 291 286 280 276 272 268 265 262 261 259 257 255 255 254 253 252 251 250 249 249 248 247 247 247 247 246 245 244 243 243 242 242 241 240 239 237 236 235 233 232 232 231 231 231 232 233 231 229 230 232 234 236 238 238 237 237 237 237 235 233 234 239 242 240
349 347 345 344 344 343 341 338 334 331 328 326 327 327 326 325 324 323 321 317 314 311 307 301 294 288 282 277 273 269 266 264 263 261 258 256 254 253 252 252 251 250 249 249 248 247 247 246 246 245 245 244 243 243 242 242 241 240 239 238 237 235 233 233 234 232 231 230 232 234 232 228 229 230 231 234 236 237 236 235 236 236 234 233 232 234 239 242
347 345 342 342 342 342 340 339 337 334 331 329 328 328 327 326 325 324 322 319 317 314 309 303 296 290 284 279 274 270 266 263 261 260 259 257 255 254 252 251 251 250 249 249 249 248 247 246 246 245 244 244 243 243 243 242 241 240 239 238 237 236 233 233 234 233 231 229 231 235 232 227 227 228 229 232 234 235 235 234 234 235 234 233 232 232 234 239
345 343 341 341 341 341 340 340 339 338 336 333 332 331 331 329 327 327 326 323 321 318 312 306 300 293 286 281 276 271 267 263 260 259 259 257 256 255 254 253 251 250 249 248 248 248 247 247 246 245 244 244 243 242 242 242 241 240 239 237 236 236 233 232 233 233 231 230 231 234 231 225 225 227 227 231 233 234 234 233 233 234 234 232 232 232 231 233
342 341 341 342 343 343 342 341 341 340 339 338 336 335 335 334 332 331 330 327 326 323 318 314 308 299 290 283 279 274 269 265 262 260 259 258 257 256 255 253 252 250 249 248 247 247 247 246 246 245 245 244 243 242 241 240 240 240 239 236 234 234 233 231 232 232 231 230 231 233 230 224 223 226 227 229 232 234 234 233 232 233 233 232 231 231 231 231
342 341 342 344 346 345 344 343 343 342 341 340 340 339 338 337 334 333 332 330 328 326 323 319 314 307 298 290 284 278 272 268 264 262 260 258 256 255 254 252 251 250 249 248 247 246 246 246 245 245 245 244 243 242 240 239 238 238 238 236 234 234 232 230 231 233 232 231 231 233 229 222 222 225 226 229 232 233 233 232 231 231 233 232 230 230 230 230
342 342 344 347 348 347 346 345 344 344 343 342 341 341 340 339 337 335 334 333 332 331 328 324 321 315 308 300 291 284 278 273 268 264 262 259 256 254 253 252 251 250 249 248 248 247 246 246 246 245 244 243 243 242 240 239 238 237 237 236 234 233 233 230 230 232 234 233 231 232 229 221 221 225 226 228 231 233 233 232 230 230 232 232 230 229 229 230
343 343 346 348 349 348 347 346 345 345 344 343 342 342 341 341 340 338 337 336 336 334 332 329 326 322 316 309 300 292 284 278 273 269 265 261 258 255 253 252 252 250 249 249 249 248 247 247 246 245 244 243 243 242 241 240 239 238 237 236 234 233 232 231 230 231 233 234 232 232 229 221 220 223 224 227 230 232 233 232 230 229 231 231 231 230 229 229
343 344 347 348 349 348 347 346 346 345 345 344 343 342 342 342 341 340 339 340 340 338 336 333 330 326 321 315 308 300 292 285 279 273 268 264 260 257 254 253 252 251 250 250 249 249 248 248 247 246 245 244 244 244 242 241 240 239 238 237 234 233 232 231 231 230 232 235 233 232 229 223 221 222 223 226 228 231 232 233 230 228 229 231 231 230 229 228
343 345 347 348 348 348 347 347 346 346 345 345 343 343 343 343 341 341 341 343 343 341 340 337 333 329 325 319 313 306 298 291 284 277 271 267 264 261 258 256 253 252 251 251 250 249 249 248 247 247 247 247 246 246 244 242 241 240 239 238 235 233 231 229 230 230 232 234 233 232 228 223 222 222 222 224 227 230 231 233 232 228 227 230 230 230 229 228
344 346 347 347 347 347 347 347 347 347 346 345 345 344 344 343 343 342 343 344 344 342 341 338 335 332 327 322 317 310 303 296 289 282 273 268 266 264 263 260 258 256 254 252 250 249 248 247 247 248 249 249 249 248 247 244 242 240 239 238 236 234 232 229 228 229 231 233 232 231 228 222 222 222 222 224 226 229 231 232 232 229 226 227 229 229 229 228
345 346 346 345 346 346 347 348 348 348 347 346 346 345 345 344 343 343 344 345 344 343 342 339 336 333 329 324 319 312 304 299 293 287 280 272 268 266 264 263 262 260 259 256 254 251 249 248 247 248 249 249 250 250 249 247 244 241 239 237 236 234 233 230 228 228 230 232 231 230 228 222 221 223 223 223 226 228 231 232 233 231 228 226 228 229 229 228
346 346 345 345 345 347 348 349 349 349 348 347 347 346 346 345 345 345 345 346 345 344 343 340 336 332 328 324 319 311 304 299 294 289 284 279 273 268 265 263 261 260 260 259 259 257 255 254 252 250 248 248 249 250 250 249 246 243 240 238 235 234 233 231 228 227 228 230 230 229 228 222 220 223 223 223 224 226 229 232 233 233 231 227 227 229 229 229
346 345 344 345 346 348 350 350 349 349 348 348 347 347 346 346 346 346 346 346 346 345 343 339 336 332 328 324 318 311 306 301 296 291 288 284 278 272 266 262 259 258 259 260 260 260 259 258 258 255 252 250 249 249 250 249 246 243 241 239 235 232 232 231 229 228 228 229 229 229 227 221 219 222 222 222 223 223 225 230 232 232 232 228 226 229 230 229
344 343 344 345 347 349 350 350 350 349 348 347 347 347 347 347 347 347 347 347 345 344 342 339 336 333 328 323 318 313 309 303 297 294 292 289 284 279 273 268 262 258 258 259 259 258 257 258 260 259 256 254 251 249 249 247 243 239 238 236 233 231 231 230 229 228 227 227 227 228 226 220 218 221 220 221 223 222 223 227 229 230 230 229 226 227 230 230
342 342 344 345 348 350 350 350 350 349 348 347 347 348 348 348 349 348 347 346 345 344 343 340 337 334 330 324 321 317 311 303 298 297 294 289 284 281 277 274 270 266 263 261 260 257 255 255 257 258 258 256 252 248 248 247 244 239 237 234 231 228 229 229 228 227 226 226 225 226 225 220 217 219 220 221 223 222 222 225 228 228 229 229 226 226 228 230
340 341 343 345 348 350 351 350 349 349 349 348 348 349 349 350 350 348 347 345 345 344 344 342 339 336 333 328 324 322 318 313 309 305 301 295 289 282 277 273 272 271 268 266 263 260 256 253 253 256 257 256 253 249 247 247 245 241 238 234 230 227 227 227 227 225 225 225 224 224 224 220 216 218 219 221 222 222 222 225 227 228 228 229 227 226 227 228
339 340 342 345 348 349 350 350 349 349 349 348 349 350 351 351 350 348 346 345 346 345 344 343 341 338 336 333 330 328 326 323 319 315 311 306 299 291 284 278 273 270 268 267 264 263 261 257 254 252 252 252 252 250 248 248 245 240 238 235 230 227 226 226 226 225 224 224 223 223 224 221 215 215 218 219 220 221 222 224 226 226 226 227 226 226 227 226
338 339 342 345 347 349 349 349 349 349 349 349 350 351 352 351 350 347 346 346 346 346 345 344 343 340 339 338 337 333 329 325 321 318 314 309 303 297 290 285 280 273 269 267 264 264 264 262 258 253 250 250 250 249 248 246 243 239 236 233 230 226 224 224 224 224 224 223 223 223 224 222 216 214 217 218 218 220 221 223 225 225 224 225 225 225 226 226
337 339 343 345 346 348 349 349 349 349 349 349 350 352 352 350 349 348 347 346 346 347 346 345 344 344 344 343 340 335 330 326 322 318 314 309 303 298 292 287 283 278 273 268 265 264 263 264 263 260 256 252 250 247 245 243 240 237 233 229 227 225 223 222 223 224 223 222 222 222 223 223 217 213 216 217 216 218 220 221 224 224 223 223 224 223 224 225
337 340 344 345 346 347 348 349 349 349 349 349 351 353 352 350 349 348 347 347 347 347 347 346 346 347 348 345 341 338 335 332 327 322 318 314 310 305 299 293 286 280 275 269 264 262 261 261 261 259 256 253 249 245 242 239 236 234 231 227 225 224 223 221 221 223 222 221 221 221 222 223 218 212 215 216 215 216 219 220 222 223 222 222 223 223 222 223
337 341 344 345 345 347 348 349 349 349 349 350 352 353 352 350 349 348 348 348 348 348 348 348 348 349 349 347 344 342 341 338 335 332 329 327 324 319 314 309 300 290 282 274 267 263 259 257 255 254 253 251 248 245 241 237 235 233 231 227 225 224 222 221 221 221 221 220 220 220 220 221 218 212 213 215 214 215 217 218 220 221 221 220 221 223 222 220
338 342 344 344 345 347 348 348 349 349 349 350 351 352 352 351 350 349 349 349 349 349 349 349 350 350 349 347 346 346 345 344 341 340 340 339 336 331 327 323 314 302 293 285 276 270 265 259 255 252 250 249 248 247 245 240 236 233 230 227 225 224 222 221 221 221 221 219 219 220 219 220 217 211 211 214 214 214 216 217 218 219 219 218 219 221 222 220
339 343 344 344 345 346 347 347 348 350 350 350 351 351 351 351 350 350 350 349 350 350 351 351 351 351 349 348 349 350 350 349 348 348 348 346 343 339 333 328 320 309 300 292 285 278 274 267 261 256 251 247 246 246 244 240 235 232 228 225 224 223 221 221 221 221 221 220 220 220 219 220 217 211 209 213 213 213 215 216 216 217 218 217 217 218 220 219
340 342 343 344 344 345 345 346 348 350 350 350 350 350 351 351 351 351 350 350 350 351 352 352 352 351 350 350 351 352 353 353 353 354 355 352 349 345 339 331 322 312 303 296 290 284 278 273 268 262 255 248 245 244 241 237 233 231 227 222 221 220 219 220 220 220 220 219 219 220 219 219 216 210 208 212 213 212 213 214 215 216 217 217 215 216 217 217
340 342 343 343 343 344 345 346 348 350 349 350 350 350 350 351 352 351 351 351 350 351 353 353 352 352 352 352 352 353 354 355 356 359 360 357 353 350 346 340 330 320 313 306 301 294 285 277 270 263 257 250 245 243 240 236 232 229 224 220 218 217 216 219 221 221 220 218 218 218 216 217 215 208 207 210 212 212 212 213 213 214 215 216 214 214 214 214
340 342 342 341 342 343 344 345 347 348 349 350 351 350 349 351 352 351 351 351 351 351 353 353 353 352 353 352 353 355 356 356 358 1 2 1 358 355 353 349 341 332 327 322 316 308 295 282 272 263 257 252 246 241 238 236 232 228 224 220 217 214 213 216 219 220 220 217 216 215 214 214 212 206 205 208 210 211 211 211 211 211 213 214 213 213 213 212
340 340 340 341 342 343 344 345 345 346 348 350 351 350 349 350 352 352 352 352 351 351 353 353 353 353 353 353 354 355 357 358 0 3 3 2 1 358 355 352 346 338 335 332 324 315 301 285 273 264 258 253 247 240 235 232 228 225 222 219 216 213 211 213 216 217 217 216 214 212 212 212 209 205 204 207 209 210 210 210 209 209 211 212 212 212 212 211
339 340 340 341 342 343 344 345 344 345 347 349 351 350 349 350 351 352 352 352 352 352 353 353 353 352 352 353 354 356 358 359 1 4 5 4 2 359 355 351 347 342 339 335 329 321 306 288 273 264 257 251 245 236 230 226 221 217 214 211 211 210 208 207 210 212 213 213 212 210 210 210 209 206 205 207 209 210 209 209 208 208 209 210 211 212 211 210
339 339 340 341 342 343 344 344 344 345 346 348 350 350 350 349 351 352 352 353 353 352 352 353 352 352 352 353 355 356 358 359 1 4 6 5 5 3 358 353 349 346 342 337 335 329 312 294 277 265 255 246 239 230 224 219 211 208 207 204 203 204 204 202 205 207 206 206 206 206 207 208 208 207 206 207 209 210 209 209 208 207 207 208 210 211 210 209
338 339 339 341 343 344 344 345 345 345 346 347 348 349 350 350 350 352 353 353 353 353 352 352 351 352 352 352 355 357 358 359 1 3 6 6 6 6 2 358 355 352 344 339 339 330 316 303 285 267 251 238 231 224 216 209 202 199 200 201 198 198 201 202 203 203 201 200 201 201 204 206 207 206 205 205 207 209 209 209 208 206 206 206 208 210 210 210
337 338 339 341 344 345 345 345 345 344 345 346 346 348 350 350 351 352 353 353 354 353 352 351 351 352 351 352 354 357 358 359 0 2 4 5 6 6 5 2 360 355 347 342 338 327 316 306 288 266 244 227 217 211 206 203 200 194 192 196 196 195 198 201 201 200 198 199 200 199 202 204 205 206 205 203 205 207 208 209 208 206 205 205 206 208 209 211
337 338 339 341 344 345 346 345 344 344 345 346 346 347 349 351 351 351 352 353 353 353 352 350 351 351 351 352 354 356 358 359 0 1 2 3 5 5 4 2 359 356 351 346 341 332 321 308 288 264 237 214 199 192 190 193 196 190 185 190 194 193 194 193 191 193 197 199 199 199 201 202 203 204 203 202 203 205 206 207 207 205 204 204 205 206 208 210
336 337 339 341 343 344 345 344 344 344 345 345 346 346 348 350 351 351 352 352 353 353 352 351 351 351 351 351 353 355 358 360 0 1 1 2 2 2 1 359 357 356 354 350 349 348 339 323 298 252 219 197 184 178 174 178 186 183 176 179 186 187 185 182 180 185 192 196 198 199 201 201 201 200 200 199 202 204 205 205 205 204 204 202 203 205 207 209
335 336 339 340 341 343 343 343 343 344 345 345 345 346 347 350 351 351 351 352 352 353 353 352 351 351 351 351 352 354 357 359 360 360 2 2 0 357 355 356 356 356 355 357 1 6 2 351 337 230 194 183 176 167 161 163 172 174 170 170 174 175 175 176 177 181 186 191 197 200 200 200 199 198 197 197 199 202 204 203 202 202 202 201 201 204 206 208
334 336 339 340 340 341 342 342 343 343 344 344 345 346 347 349 351 352 351 351 352 352 352 352 351 351 350 350 351 353 355 358 359 359 1 3 1 356 354 355 357 356 358 4 11 19 24 18 12 143 166 168 164 155 149 152 157 162 164 166 169 171 174 177 177 178 182 189 195 198 199 199 198 197 196 196 197 200 202 202 201 200 200 200 201 202 205 208
333 335 338 339 339 340 340 341 342 342 343 344 345 346 347 348 350 352 352 350 351 352 352 351 350 350 350 349 350 353 355 357 358 358 359 2 4 1 357 356 357 357 359 6 18 32 39 39 35 82 140 145 147 143 141 144 148 151 156 162 167 171 175 176 176 178 183 189 193 194 194 196 197 197 197 195 196 199 200 200 199 199 199 199 200 202 204 207
331 335 338 338 338 339 339 340 341 342 343 343 344 346 347 348 349 351 352 351 351 351 351 350 349 349 349 349 348 351 354 357 358 358 358 0 4 4 1 359 359 2 7 15 31 45 50 53 53 58 107 128 135 138 138 139 143 146 151 158 163 166 169 171 175 178 184 189 190 190 190 192 194 196 197 195 195 197 198 198 198 198 198 198 199 201 203 205
330 334 338 338 337 337 338 340 341 342 342 343 344 345 347 348 349 350 351 352 351 351 350 349 348 348 349 349 347 348 351 356 359 359 358 360 4 5 3 1 2 9 21 31 38 47 54 61 67 69 84 111 127 133 133 134 138 141 145 150 155 158 163 168 173 178 183 186 186 186 187 188 190 194 197 196 195 195 195 196 196 196 197 198 199 201 202 204
330 333 337 338 336 335 337 339 340 341 342 342 343 345 347 348 349 349 350 350 350 351 350 349 348 346 347 348 347 346 348 353 358 0 359 359 3 6 3 360 3 11 26 38 43 46 53 62 70 77 83 99 118 127 128 128 130 132 135 139 145 151 158 165 170 175 179 180 180 181 183 185 189 193 196 196 195 193 192 193 194 194 196 198 199 200 202 204
Height
10697 10694 10692 10689 10687 10685 10683 10681 10680 10678 10677 10675 10673 10671 10670 10668 10667 10666 10665 10664 10663 10663 10664 10663 10663 10661 10660 10660 10660 10659 10660 10662 10662 10662 10662 10662 10663 10662 10664 10666 10667 10669 10669 10670 10670 10672 10675 10676 10679 10681 10683 10684 10686 10689 10689 10693 10696 10699 10707 10719 10729 10735 10739 10740 10740 10742 10742 10743 10738 10733 10735 10739 10743 10746 10750 10751 10751 10752 10758 10768 10777 10786 10790 10792 10797 10800 10801 10801
10695 10692 10690 10687 10685 10682 10680 10678 10676 10674 10672 10671 10670 10668 10666 10665 10663 10662 10661 10659 10658 10658 10657 10657 10657 10656 10655 10654 10654 10654 10655 10655 10656 10656 10655 10655 10656 10656 10658 10658 10660 10661 10662 10663 10663 10664 10667 10669 10671 10673 10675 10675 10678 10680 10680 10684 10688 10695 10704 10713 10726 10731 10731 10730 10730 10731 10732 10733 10730 10723 10724 10733 10738 10740 10740 10742 10744 10743 10750 10764 10774 10780 10784 10788 10794 10795 10794 10798
10692 10690 10687 10684 10682 10679 10677 10675 10673 10670 10668 10667 10665 10664 10662 10661 10659 10658 10656 10655 10654 10652 10651 10650 10650 10649 10648 10647 10647 10647 10648 10649 10649 10649 10649 10648 10648 10649 10650 10651 10652 10653 10654 10655 10655 10656 10658 10661 10663 10664 10666 10668 10670 10671 10672 10676 10680 10688 10695 10708 10723 10723 10721 10723 10722 10723 10724 10723 10721 10717 10716 10725 10733 10733 10731 10734 10738 10735 10744 10761 10770 10775 10778 10784 10789 10789 10790 10795
10690 10688 10685 10682 10680 10677 10675 10672 10670 10667 10665 10663 10661 10659 10657 10656 10655 10654 10652 10651 10649 10647 10646 10644 10644 10642 10641 10640 10639 10640 10640 10640 10641 10642 10641 10641 10640 10640 10641 10642 10643 10644 10646 10647 10648 10648 10650 10653 10655 10656 10658 10660 10661 10662 10665 10668 10672 10680 10690 10706 10714 10710 10712 10715 10714 10715 10715 10714 10715 10713 10709 10717 10726 10724 10722 10726 10730 10731 10743 10758 10764 10770 10774 10778 10784 10784 10786 10791
10688 10685 10682 10680 10677 10674 10672 10670 10667 10665 10662 10660 10658 10656 10654 10652 10650 10649 10647 10646 10645 10643 10641 10639 10638 10636 10634 10633 10632 10632 10631 10632 10633 10632 10632 10631 10631 10631 10632 10633 10634 10636 10637 10638 10639 10640 10642 10645 10647 10647 10649 10651 10652 10654 10658 10659 10663 10673 10686 10698 10700 10700 10705 10706 10706 10707 10707 10707 10709 10708 10707 10712 10714 10711 10714 10720 10726 10733 10743 10751 10756 10762 10767 10772 10777 10780 10782 10785
10685 10683 10680 10677 10675 10672 10669 10667 10665 10662 10660 10658 10655 10653 10651 10649 10646 10644 10642 10641 10639 10638 10636 10634 10632 10630 10628 10626 10625 10625 10623 10623 10623 10622 10622 10622 10622 10623 10623 10624 10625 10626 10628 10629 10629 10631 10634 10636 10637 10639 10641 10643 10644 10647 10650 10650 10654 10667 10681 10686 10688 10692 10695 10698 10700 10700 10700 10701 10703 10705 10705 10703 10699 10701 10710 10718 10730 10738 10739 10741 10747 10755 10760 10764 10770 10775 10777 10780
10683 10681 10678 10675 10672 10670 10667 10664 10662 10659 10657 10655 10652 10650 10648 10646 10643 10641 10639 10636 10634 10632 10630 10627 10625 10623 10621 10619 10617 10617 10616 10615 10614 10612 10612 10612 10612 10614 10614 10615 10615 10616 10617 10618 10620 10622 10624 10626 10628 10630 10633 10634 10636 10639 10641 10642 10647 10661 10673 10674 10678 10684 10686 10689 10691 10692 10694 10695 10699 10701 10698 10695 10694 10701 10709 10718 10731 10735 10732 10733 10739 10747 10752 10757 10764 10770 10772 10774
10681 10678 10675 10672 10669 10667 10664 10662 10659 10656 10654 10651 10649 10647 10644 10642 10639 10637 10635 10632 10630 10627 10624 10620 10617 10614 10612 10611 10609 10609 10607 10605 10604 10602 10602 10602 10602 10603 10604 10604 10604 10605 10606 10608 10610 10612 10613 10615 10618 10621 10625 10626 10628 10631 10631 10634 10640 10653 10663 10663 10669 10674 10675 10679 10681 10685 10687 10689 10693 10692 10693 10696 10697 10700 10702 10713 10726 10727 10726 10728 10732 10739 10745 10752 10760 10765 10767 10770
10678 10675 10672 10669 10666 10663 10660 10658 10655 10652 10650 10647 10645 10642 10640 10637 10635 10633 10630 10627 10624 10621 10617 10613 10610 10605 10603 10601 10600 10600 10597 10595 10593 10591 10591 10591 10591 10592 10594 10594 10594 10595 10596 10598 10599 10601 10603 10604 10608 10612 10616 10617 10618 10621 10621 10627 10634 10643 10652 10654 10658 10662 10665 10671 10675 10678 10680 10683 10685 10685 10691 10696 10696 10691 10689 10705 10720 10720 10720 10723 10725 10731 10740 10748 10756 10759 10762 10765
10676 10673 10670 10667 10664 10661 10658 10654 10651 10648 10645 10642 10639 10637 10634 10632 10629 10627 10624 10621 10617 10613 10608 10604 10601 10596 10593 10592 10590 10590 10588 10583 10580 10580 10580 10580 10580 10581 10583 10583 10584 10585 10585 10587 10587 10589 10591 10593 10598 10601 10605 10607 10609 10611 10612 10620 10627 10632 10639 10644 10647 10650 10657 10662 10666 10669 10672 10676 10678 10681 10687 10691 10686 10676 10681 10702 10713 10714 10715 10717 10720 10726 10736 10743 10749 10754 10756 10759
10674 10671 10668 10665 10662 10659 10655 10652 10649 10645 10642 10639 10635 10632 10629 10627 10624 10621 10617 10614 10609 10605 10599 10595 10591 10587 10584 10581 10581 10582 10579 10572 10568 10568 10569 10569 10569 10570 10571 10571 10573 10575 10575 10575 10575 10578 10580 10581 10585 10589 10594 10597 10599 10601 10602 10609 10617 10620 10627 10634 10636 10639 10647 10651 10656 10660 10661 10666 10670 10672 10676 10678 10670 10665 10683 10703 10706 10707 10709 10710 10714 10722 10731 10737 10742 10746 10749 10754
10672 10669 10666 10663 10659 10656 10652 10649 10646 10642 10639 10635 10632 10629 10625 10623 10620 10616 10612 10607 10602 10596 10590 10585 10580 10577 10573 10570 10571 10571 10567 10562 10558 10557 10557 10557 10557 10557 10559 10559 10561 10562 10562 10562 10563 10567 10568 10570 10573 10577 10582 10585 10589 10590 10592 10598 10605 10610 10615 10622 10626 10629 10637 10642 10648 10651 10650 10657 10661 10657 10657 10662 10662 10670 10693 10701 10695 10697 10700 10703 10708 10715 10725 10731 10735 10738 10742 10748
10670 10667 10663 10660 10657 10653 10649 10645 10642 10638 10635 10631 10627 10624 10620 10617 10614 10610 10605 10600 10595 10588 10582 10576 10571 10567 10563 10560 10561 10559 10555 10551 10548 10546 10546 10545 10544 10545 10546 10546 10547 10548 10550 10549 10551 10555 10556 10558 10562 10566 10569 10574 10578 10577 10580 10587 10593 10599 10602 10610 10617 10620 10629 10636 10638 10638 10640 10649 10650 10639 10640 10655 10666 10679 10694 10690 10682 10685 10691 10696 10700 10707 10716 10723 10728 10731 10735 10740
10668 10664 10660 10657 10653 10650 10646 10642 10638 10634 10630 10626 10622 10618 10614 10611 10607 10603 10598 10591 10586 10579 10573 10567 10561 10557 10552 10549 10549 10546 10544 10541 10537 10534 10533 10532 10531 10532 10532 10533 10534 10536 10538 10537 10538 10542 10544 10546 10550 10554 10557 10561 10564 10565 10570 10575 10580 10588 10591 10599 10607 10610 10622 10628 10623 10626 10632 10640 10638 10620 10626 10653 10668 10677 10684 10675 10670 10674 10680 10687 10691 10698 10707 10714 10721 10725 10729 10733
10666 10662 10658 10654 10650 10646 10642 10638 10634 10629 10625 10621 10616 10612 10607 10603 10599 10595 10589 10582 10576 10571 10564 10557 10551 10547 10541 10539 10537 10534 10532 10529 10525 10521 10520 10519 10518 10519 10520 10521 10522 10524 10525 10525 10526 10528 10531 10534 10537 10541 10544 10548 10553 10555 10559 10562 10568 10575 10579 10589 10596 10600 10612 10615 10609 10615 10622 10629 10622 10602 10615 10651 10664 10670 10673 10663 10659 10662 10668 10678 10683 10688 10697 10706 10713 10718 10724 10728
10663 10659 10655 10651 10646 10642 10638 10634 10629 10624 10620 10615 10610 10605 10599 10594 10590 10587 10580 10572 10565 10559 10552 10546 10541 10536 10532 10529 10526 10523 10520 10516 10512 10509 10507 10507 10508 10509 10509 10509 10510 10511 10513 10514 10514 10515 10518 10521 10524 10527 10531 10535 10540 10543 10545 10549 10557 10563 10567 10577 10582 10585 10596 10600 10597 10602 10608 10611 10603 10588 10607 10646 10657 10659 10659 10650 10649 10653 10659 10669 10675 10680 10688 10698 10705 10710 10718 10722
10660 10656 10652 10648 10643 10638 10633 10628 10624 10619 10614 10608 10602 10597 10592 10585 10580 10577 10571 10562 10556 10549 10542 10536 10529 10525 10522 10519 10516 10513 10509 10505 10501 10498 10496 10497 10497 10497 10497 10496 10497 10498 10500 10501 10501 10502 10504 10508 10511 10514 10518 10521 10524 10527 10531 10538 10546 10548 10549 10558 10566 10568 10577 10586 10586 10587 10592 10592 10586 10578 10600 10639 10649 10646 10646 10642 10643 10646 10649 10658 10667 10672 10679 10689 10697 10702 10710 10716
10657 10653 10649 10644 10639 10634 10629 10624 10618 10613 10608 10602 10596 10590 10584 10578 10572 10570 10564 10555 10549 10541 10534 10528 10521 10514 10510 10509 10506 10502 10499 10495 10491 10489 10487 10486 10486 10485 10484 10483 10483 10485 10485 10486 10488 10488 10490 10494 10498 10502 10505 10506 10506 10508 10514 10524 10529 10528 10530 10541 10552 10555 10563 10576 10577 10577 10577 10575 10572 10570 10594 10632 10640 10635 10637 10639 10637 10635 10639 10648 10658 10664 10670 10679 10688 10695 10702 10709
10654 10649 10645 10640 10636 10631 10626 10620 10614 10608 10602 10595 10589 10582 10576 10568 10560 10555 10552 10545 10537 10530 10524 10518 10512 10506 10500 10498 10495 10492 10488 10484 10482 10480 10478 10476 10475 10473 10471 10469 10470 10472 10472 10472 10473 10475 10478 10480 10484 10490 10491 10487 10485 10488 10498 10508 10511 10513 10518 10527 10539 10544 10552 10564 10567 10568 10564 10559 10561 10563 10589 10625 10630 10626 10631 10632 10627 10624 10628 10637 10647 10656 10661 10668 10678 10688 10696 10704
10651 10646 10641 10636 10632 10627 10622 10616 10610 10604 10598 10591 10584 10576 10569 10560 10551 10542 10539 10535 10527 10520 10513 10507 10503 10497 10492 10487 10484 10481 10478 10474 10472 10471 10469 10466 10464 10463 10460 10458 10458 10459 10459 10458 10460 10463 10465 10468 10473 10474 10469 10465 10468 10474 10485 10494 10496 10500 10507 10513 10525 10533 10540 10551 10555 10558 10550 10542 10549 10559 10585 10615 10618 10617 10622 10621 10616 10612 10616 10624 10636 10649 10653 10659 10671 10681 10691 10700
10647 10643 10638 10633 10629 10624 10618 10612 10606 10601 10595 10588 10581 10574 10567 10559 10551 10541 10532 10526 10519 10512 10505 10498 10493 10488 10484 10479 10474 10470 10467 10465 10463 10462 10459 10454 10452 10451 10450 10450 10449 10447 10446 10446 10449 10451 10451 10456 10458 10452 10448 10452 10457 10464 10472 10480 10483 10488 10494 10500 10512 10520 10529 10538 10540 10544 10537 10526 10538 10555 10578 10603 10607 10607 10611 10609 10604 10602 10606 10613 10626 10642 10648 10654 10664 10674 10686 10694
10643 10639 10634 10629 10625 10620 10615 10608 10602 10597 10590 10584 10576 10569 10561 10553 10545 10537 10527 10518 10510 10503 10497 10490 10485 10480 10475 10471 10466 10461 10457 10455 10452 10452 10450 10444 10440 10440 10439 10439 10438 10437 10435 10436 10438 10438 10440 10444 10440 10433 10437 10443 10447 10452 10458 10465 10471 10476 10482 10487 10499 10508 10515 10523 10526 10530 10524 10515 10528 10546 10565 10590 10596 10596 10600 10598 10594 10596 10600 10605 10616 10633 10642 10647 10657 10668 10678 10686
10640 10635 10630 10625 10621 10616 10611 10604 10598 10592 10585 10579 10572 10563 10555 10547 10538 10530 10522 10512 10503 10496 10490 10483 10477 10471 10467 10462 10457 10452 10447 10445 10442 10441 10441 10436 10432 10431 10429 10426 10425 10426 10424 10423 10424 10426 10431 10430 10423 10423 10429 10432 10436 10439 10443 10450 10457 10463 10469 10473 10485 10495 10498 10508 10514 10514 10507 10502 10516 10533 10550 10575 10585 10585 10590 10589 10588 10592 10594 10597 10606 10620 10632 10642 10651 10661 10670 10678
10638 10633 10627 10622 10617 10611 10606 10600 10594 10588 10581 10575 10568 10559 10550 10542 10534 10524 10515 10507 10498 10490 10483 10476 10470 10464 10459 10454 10450 10444 10438 10435 10432 10430 10429 10428 10425 10423 10421 10417 10415 10414 10410 10408 10410 10415 10421 10415 10411 10417 10420 10420 10424 10426 10429 10436 10443 10448 10453 10459 10471 10479 10482 10492 10498 10495 10492 10490 10504 10522 10536 10561 10577 10576 10580 10583 10585 10590 10590 10591 10598 10610 10626 10640 10647 10653 10662 10672
10635 10631 10626 10620 10614 10608 10601 10595 10589 10583 10577 10570 10563 10555 10547 10538 10529 10519 10509 10500 10491 10483 10475 10468 10463 10458 10453 10448 10443 10437 10431 10427 10424 10421 10419 10418 10416 10415 10414 10409 10407 10404 10398 10395 10397 10404 10408 10402 10403 10408 10409 10411 10414 10416 10418 10422 10428 10434 10441 10447 10456 10464 10466 10473 10479 10480 10479 10478 10494 10511 10522 10550 10568 10563 10567 10575 10576 10583 10585 10585 10594 10606 10620 10637 10645 10648 10658 10668
10632 10629 10624 10618 10612 10605 10598 10591 10585 10578 10571 10565 10558 10550 10541 10533 10523 10512 10503 10493 10484 10477 10470 10463 10457 10451 10446 10441 10436 10431 10425 10420 10415 10412 10411 10409 10407 10406 10404 10400 10399 10396 10389 10386 10389 10394 10394 10388 10389 10394 10397 10402 10406 10408 10408 10407 10413 10421 10429 10434 10440 10448 10450 10454 10462 10465 10466 10472 10490 10499 10508 10537 10551 10543 10553 10563 10562 10571 10576 10576 10585 10599 10612 10629 10642 10647 10654 10664
10630 10626 10622 10616 10610 10603 10596 10589 10583 10576 10568 10561 10553 10545 10537 10527 10516 10505 10496 10488 10480 10474 10468 10460 10453 10446 10439 10434 10430 10425 10420 10414 10406 10403 10403 10401 10397 10394 10393 10391 10389 10387 10382 10379 10384 10385 10381 10376 10377 10380 10384 10391 10395 10397 10393 10388 10396 10408 10415 10416 10421 10431 10434 10437 10445 10449 10456 10467 10478 10479 10491 10520 10529 10526 10542 10551 10551 10561 10568 10567 10575 10590 10604 10620 10637 10645 10650 10659
10628 10624 10620 10614 10608 10601 10594 10587 10580 10573 10565 10557 10550 10542 10533 10522 10510 10499 10490 10484 10477 10470 10464 10456 10447 10440 10432 10425 10422 10418 10414 10409 10401 10397 10395 10392 10388 10384 10382 10380 10378 10377 10374 10373 10376 10374 10370 10369 10369 10369 10373 10378 10381 10382 10377 10374 10385 10399 10402 10399 10407 10416 10419 10423 10429 10437 10446 10452 10456 10461 10475 10501 10513 10521 10536 10542 10545 10556 10563 10564 10570 10585 10601 10616 10633 10643 10648 10655
10625 10621 10617 10611 10605 10598 10592 10584 10577 10570 10562 10553 10544 10536 10527 10516 10505 10495 10486 10480 10472 10464 10457 10451 10442 10434 10426 10416 10411 10408 10404 10399 10394 10390 10386 10383 10380 10376 10372 10370 10369 10367 10365 10365 10365 10361 10360 10362 10363 10364 10365 10365 10367 10368 10366 10368 10379 10389 10388 10388 10397 10404 10407 10411 10415 10425 10433 10431 10439 10453 10465 10485 10504 10516 10526 10529 10536 10549 10561 10565 10570 10584 10601 10615 10630 10639 10644 10650
10623 10618 10613 10608 10602 10595 10589 10582 10574 10566 10558 10548 10539 10531 10521 10511 10501 10492 10484 10476 10467 10458 10451 10446 10438 10429 10422 10413 10404 10398 10394 10389 10385 10381 10377 10374 10371 10367 10364 10362 10361 10359 10356 10356 10354 10351 10351 10353 10356 10358 10356 10355 10356 10358 10360 10363 10371 10377 10376 10379 10386 10392 10396 10399 10404 10413 10414 10416 10434 10450 10458 10474 10494 10507 10512 10516 10529 10545 10557 10562 10567 10582 10599 10611 10622 10629 10635 10642
10619 10615 10610 10604 10599 10592 10586 10579 10571 10563 10554 10545 10536 10527 10516 10506 10499 10491 10481 10472 10464 10455 10446 10440 10434 10424 10417 10411 10403 10396 10390 10384 10379 10374 10371 10367 10363 10360 10356 10354 10353 10351 10350 10348 10346 10344 10344 10344 10346 10348 10348 10348 10350 10352 10354 10356 10361 10365 10366 10369 10374 10379 10383 10387 10394 10398 10399 10413 10435 10447 10450 10461 10482 10500 10503 10509 10527 10541 10551 10557 10563 10577 10593 10604 10613 10621 10627 10634
10616 10612 10606 10600 10595 10589 10583 10576 10568 10559 10551 10542 10533 10523 10513 10504 10497 10488 10478 10469 10461 10453 10444 10435 10429 10420 10410 10403 10399 10394 10387 10381 10375 10370 10365 10361 10358 10354 10351 10349 10346 10344 10343 10342 10340 10338 10337 10336 10337 10339 10340 10342 10343 10346 10346 10347 10351 10353 10355 10359 10362 10366 10371 10376 10383 10386 10395 10416 10431 10437 10440 10447 10470 10496 10499 10505 10523 10534 10542 10552 10560 10573 10588 10597 10604 10613 10620 10627
10613 10608 10602 10596 10590 10585 10580 10572 10564 10556 10548 10540 10529 10519 10510 10502 10493 10484 10475 10466 10456 10447 10439 10429 10422 10415 10407 10400 10393 10388 10382 10376 10371 10366 10361 10356 10352 10349 10346 10344 10341 10339 10338 10337 10335 10333 10331 10331 10331 10331 10332 10333 10335 10336 10336 10337 10341 10344 10347 10350 10353 10358 10363 10369 10375 10381 10395 10411 10418 10422 10425 10431 10458 10487 10491 10498 10517 10528 10535 10546 10555 10567 10581 10591 10598 10605 10613 10620
10609 10604 10598 10592 10587 10581 10575 10569 10561 10554 10545 10535 10525 10516 10509 10500 10491 10482 10472 10462 10452 10443 10435 10426 10417 10410 10405 10399 10393 10385 10378 10372 10367 10361 10356 10351 10347 10344 10341 10339 10336 10334 10333 10331 10330 10328 10327 10326 10325 10325 10326 10326 10327 10327 10327 10330 10335 10338 10340 10344 10348 10353 10358 10363 10370 10377 10390 10401 10403 10405 10409 10420 10449 10477 10485 10495 10512 10521 10528 10538 10547 10558 10572 10584 10591 10596 10604 10613
10606 10600 10595 10589 10582 10577 10571 10565 10559 10551 10541 10531 10522 10516 10510 10501 10491 10481 10469 10460 10451 10441 10432 10423 10415 10408 10403 10398 10392 10384 10377 10370 10364 10358 10353 10348 10343 10340 10337 10334 10332 10330 10328 10326 10325 10323 10322 10322 10321 10321 10322 10322 10322 10322 10324 10327 10330 10332 10335 10339 10345 10349 10354 10360 10365 10373 10381 10385 10386 10390 10402 10420 10446 10472 10485 10492 10504 10512 10518 10527 10538 10549 10561 10574 10582 10587 10596 10608
10604 10597 10592 10585 10578 10572 10567 10562 10557 10548 10538 10528 10520 10514 10508 10500 10490 10479 10468 10458 10450 10441 10431 10422 10413 10407 10402 10396 10389 10382 10375 10369 10362 10356 10351 10346 10341 10338 10334 10331 10329 10326 10325 10322 10321 10319 10318 10317 10318 10318 10318 10318 10318 10319 10321 10323 10325 10326 10330 10335 10339 10342 10348 10355 10360 10366 10369 10373 10379 10390 10407 10423 10442 10467 10481 10484 10493 10503 10511 10521 10531 10542 10553 10564 10574 10582 10592 10604
10601 10595 10589 10582 10576 10570 10564 10559 10553 10545 10536 10528 10519 10510 10504 10497 10486 10476 10466 10455 10446 10439 10431 10422 10413 10406 10400 10393 10386 10380 10373 10367 10361 10354 10349 10344 10340 10336 10333 10330 10327 10324 10322 10319 10317 10316 10314 10313 10313 10314 10314 10314 10314 10315 10317 10318 10320 10322 10325 10329 10331 10335 10343 10350 10354 10356 10359 10368 10380 10392 10409 10421 10437 10462 10475 10476 10485 10496 10505 10514 10523 10534 10544 10555 10568 10577 10586 10597
10598 10592 10586 10581 10575 10570 10562 10555 10549 10543 10536 10528 10517 10507 10499 10493 10484 10473 10463 10453 10443 10436 10428 10420 10412 10405 10397 10390 10384 10378 10371 10365 10359 10353 10347 10342 10338 10334 10331 10328 10325 10322 10320 10317 10315 10314 10312 10311 10310 10310 10309 10310 10310 10312 10313 10314 10316 10319 10321 10323 10326 10331 10339 10344 10347 10350 10356 10367 10377 10388 10402 10413 10430 10455 10466 10468 10476 10484 10491 10500 10511 10523 10533 10545 10560 10570 10578 10589
10596 10591 10585 10580 10573 10567 10560 10551 10545 10541 10536 10527 10517 10506 10496 10489 10481 10471 10461 10451 10441 10434 10426 10418 10409 10402 10396 10389 10382 10376 10370 10363 10357 10351 10345 10341 10336 10333 10329 10326 10324 10321 10318 10315 10313 10312 10311 10309 10308 10308 10307 10307 10308 10309 10310 10312 10313 10316 10319 10321 10325 10329 10333 10337 10342 10347 10355 10364 10372 10384 10396 10405 10423 10444 10452 10454 10459 10465 10474 10486 10500 10515 10525 10538 10554 10564 10573 10583
10596 10591 10585 10578 10570 10564 10557 10550 10543 10538 10534 10527 10517 10506 10494 10486 10479 10469 10459 10450 10440 10432 10424 10415 10407 10400 10394 10389 10382 10375 10369 10363 10357 10351 10345 10340 10335 10331 10328 10325 10323 10320 10317 10314 10312 10310 10310 10308 10307 10306 10306 10306 10307 10308 10308 10309 10311 10314 10318 10321 10324 10327 10330 10333 10338 10344 10351 10361 10370 10381 10391 10401 10415 10428 10432 10434 10441 10453 10467 10480 10494 10507 10518 10533 10548 10558 10569 10579
10594 10589 10583 10576 10569 10561 10555 10549 10542 10534 10529 10524 10517 10507 10495 10485 10479 10469 10458 10449 10439 10429 10421 10414 10406 10399 10394 10388 10382 10375 10369 10363 10358 10352 10347 10341 10337 10332 10329 10325 10322 10319 10316 10314 10311 10310 10309 10308 10306 10305 10305 10305 10306 10306 10306 10307 10309 10312 10315 10318 10321 10324 10327 10331 10336 10342 10349 10359 10369 10379 10388 10397 10407 10417 10422 10428 10439 10452 10464 10476 10489 10501 10515 10531 10544 10553 10565 10575
10591 10586 10580 10575 10569 10560 10553 10546 10540 10532 10524 10519 10515 10510 10497 10484 10476 10469 10458 10447 10437 10427 10419 10412 10406 10399 10393 10388 10382 10375 10370 10364 10358 10353 10348 10343 10339 10334 10330 10326 10323 10319 10316 10314 10311 10309 10308 10307 10306 10305 10304 10304 10305 10305 10305 10306 10308 10310 10312 10315 10317 10322 10326 10328 10331 10336 10345 10356 10365 10375 10385 10392 10401 10411 10419 10429 10441 10451 10461 10472 10485 10499 10513 10528 10540 10550 10561 10571
10588 10583 10578 10573 10568 10561 10552 10544 10536 10528 10521 10514 10509 10506 10498 10485 10473 10465 10456 10446 10435 10426 10418 10412 10406 10400 10393 10388 10382 10376 10369 10364 10359 10354 10349 10345 10340 10336 10331 10327 10324 10320 10317 10315 10312 10310 10308 10307 10306 10305 10304 10304 10304 10305 10305 10306 10306 10308 10310 10313 10315 10319 10322 10325 10329 10335 10345 10354 10362 10371 10380 10387 10397 10405 10413 10425 10438 10449 10460 10472 10484 10498 10512 10524 10534 10546 10557 10566
10584 10580 10575 10570 10566 10560 10553 10545 10537 10529 10521 10513 10505 10499 10494 10485 10472 10462 10455 10446 10436 10427 10419 10413 10407 10400 10393 10388 10382 10377 10371 10365 10360 10354 10350 10346 10341 10337 10333 10328 10325 10322 10319 10317 10314 10311 10309 10308 10306 10305 10305 10304 10304 10305 10305 10306 10307 10307 10310 10313 10315 10317 10321 10327 10334 10343 10351 10357 10363 10371 10377 10383 10391 10400 10410 10423 10433 10445 10457 10469 10483 10498 10510 10522 10533 10543 10553 10561
10581 10577 10572 10567 10563 10557 10551 10545 10538 10531 10522 10514 10505 10496 10489 10482 10471 10461 10453 10445 10438 10431 10422 10413 10407 10400 10394 10388 10382 10377 10372 10366 10361 10355 10351 10346 10342 10338 10334 10330 10327 10324 10322 10319 10316 10313 10311 10309 10307 10306 10306 10305 10304 10305 10305 10307 10308 10309 10311 10314 10318 10321 10325 10331 10339 10347 10353 10359 10364 10369 10372 10377 10385 10395 10408 10421 10431 10440 10452 10466 10482 10496 10508 10520 10532 10541 10548 10555
10579 10574 10568 10562 10557 10553 10549 10544 10537 10530 10522 10513 10504 10495 10487 10480 10470 10460 10452 10444 10436 10430 10423 10414 10405 10399 10393 10388 10382 10377 10372 10367 10362 10358 10353 10348 10343 10339 10336 10333 10329 10326 10324 10320 10317 10315 10313 10311 10309 10308 10307 10306 10306 10305 10306 10308 10310 10311 10312 10316 10321 10325 10329 10334 10339 10345 10351 10358 10362 10365 10367 10373 10382 10392 10405 10418 10428 10437 10448 10462 10479 10493 10505 10517 10527 10536 10544 10550
10578 10573 10566 10560 10554 10549 10544 10539 10532 10525 10519 10512 10503 10494 10486 10480 10471 10459 10450 10443 10435 10427 10421 10414 10407 10400 10394 10388 10383 10378 10374 10369 10365 10361 10356 10351 10346 10342 10339 10335 10332 10328 10325 10322 10319 10317 10315 10313 10311 10310 10309 10308 10307 10307 10307 10309 10311 10313 10314 10317 10321 10325 10329 10332 10336 10341 10348 10354 10358 10361 10366 10373 10382 10390 10401 10412 10424 10434 10445 10459 10474 10487 10501 10513 10523 10532 10539 10544
10576 10571 10565 10559 10553 10547 10540 10534 10528 10521 10515 10508 10501 10492 10482 10476 10471 10460 10447 10439 10433 10426 10419 10413 10407 10401 10395 10389 10384 10379 10375 10370 10366 10362 10358 10354 10350 10346 10342 10338 10334 10330 10327 10324 10321 10319 10317 10316 10314 10313 10311 10310 10310 10309 10309 10311 10313 10316 10318 10320 10322 10325 10328 10330 10335 10340 10346 10350 10354 10359 10367 10376 10384 10391 10399 10410 10421 10432 10442 10456 10469 10482 10496 10508 10518 10526 10533 10539
10572 10568 10563 10556 10550 10546 10540 10534 10528 10520 10513 10506 10499 10491 10482 10472 10468 10463 10451 10437 10428 10421 10417 10412 10407 10401 10395 10390 10386 10381 10376 10372 10367 10363 10359 10356 10353 10349 10344 10340 10336 10332 10329 10326 10323 10321 10319 10318 10317 10316 10314 10313 10312 10312 10312 10314 10316 10318 10320 10323 10325 10328 10332 10335 10339 10344 10347 10351 10354 10361 10369 10377 10386 10394 10402 10411 10420 10429 10439 10453 10467 10480 10492 10503 10512 10520 10526 10534
10568 10564 10559 10552 10545 10541 10537 10531 10524 10518 10510 10503 10496 10489 10481 10471 10462 10458 10454 10442 10429 10419 10413 10410 10406 10401 10396 10390 10385 10382 10378 10374 10370 10365 10361 10357 10354 10350 10347 10343 10338 10335 10331 10328 10325 10323 10322 10321 10320 10319 10318 10317 10316 10316 10316 10317 10318 10320 10323 10325 10328 10331 10336 10340 10343 10346 10350 10354 10359 10365 10371 10378 10387 10395 10402 10410 10417 10426 10438 10452 10466 10479 10490 10498 10506 10513 10521 10530
10564 10560 10556 10549 10540 10535 10532 10527 10521 10515 10507 10500 10494 10487 10480 10472 10461 10453 10449 10444 10436 10426 10416 10409 10404 10399 10396 10391 10386 10382 10379 10375 10371 10367 10363 10359 10355 10352 10349 10345 10341 10337 10334 10330 10328 10326 10324 10323 10323 10322 10322 10321 10321 10321 10320 10321 10322 10324 10327 10330 10332 10335 10338 10342 10345 10349 10353 10357 10362 10368 10374 10381 10388 10394 10401 10409 10417 10427 10439 10452 10464 10475 10485 10492 10499 10508 10517 10525
10562 10558 10555 10549 10541 10533 10529 10524 10517 10511 10505 10499 10493 10487 10479 10473 10464 10453 10444 10439 10434 10427 10419 10412 10405 10399 10394 10391 10386 10381 10378 10375 10372 10368 10364 10360 10357 10353 10350 10347 10343 10339 10336 10333 10331 10329 10328 10327 10326 10325 10325 10325 10325 10325 10324 10325 10327 10328 10331 10334 10337 10339 10342 10345 10349 10353 10357 10361 10367 10372 10379 10385 10391 10397 10404 10413 10421 10430 10440 10450 10460 10470 10478 10486 10494 10503 10511 10519